EDT,Max TemperatureF,Mean TemperatureF,Min TemperatureF,Max Dew PointF,MeanDew PointF,Min DewpointF,Max Humidity, Mean Humidity, Min Humidity, Max Sea Level PressureIn, Mean Sea Level PressureIn, Min Sea Level PressureIn, Max VisibilityMiles, Mean VisibilityMiles, Min VisibilityMiles, Max Wind SpeedMPH, Mean Wind SpeedMPH, Max Gust SpeedMPH,PrecipitationIn, CloudCover, Events, WindDirDegrees
2013-3-1,33,30,26,31,25,18,92,79,66,30.14,30.04,29.95,10,9,3,16,9,18,T,8,Snow,29
2013-3-2,31,28,25,21,19,17,81,72,63,30.13,30.10,30.07,10,9,5,14,9,18,T,8,Snow,5
2013-3-3,33,28,22,19,17,15,75,66,56,30.12,30.09,30.06,10,10,10,18,10,25,T,5,Snow,324
2013-3-4,37,27,17,29,20,14,92,72,51,30.18,30.12,30.06,10,9,2,12,4,14,0.04,6,Snow,137
2013-3-5,32,30,28,30,27,25,92,85,78,30.08,29.84,29.69,10,3,0,25,14,33,0.88,8,Fog-Snow,61
2013-3-6,33,29,25,27,25,21,92,81,69,30.26,30.04,29.78,10,8,1,23,10,30,0.10,8,Snow,340
2013-3-7,38,34,30,30,26,21,92,73,54,30.42,30.35,30.23,10,10,7,13,6,18,0.00,8,,308
2013-3-8,36,27,17,24,21,15,100,76,52,30.53,30.47,30.43,10,10,8,8,3,8,0.00,2,Fog,126
2013-3-9,40,31,21,34,27,18,92,81,70,30.41,30.24,29.99,10,10,6,15,7,20,0.04,6,Rain,124
2013-3-10,58,48,37,43,37,33,85,71,57,29.99,29.89,29.75,10,10,9,21,9,29,0.02,8,Rain,148
2013-3-11,54,44,33,50,43,31,100,83,66,29.80,29.66,29.56,10,6,1,33,8,39,0.46,8,Rain,202
2013-3-12,36,33,30,32,28,25,92,78,64,30.00,29.92,29.80,10,9,1,24,16,32,0.01,8,Snow,255
2013-3-13,31,28,24,27,21,16,85,72,58,30.32,30.11,29.96,10,8,1,24,14,33,T,6,Snow,281
2013-3-14,41,32,22,25,21,17,84,64,44,30.35,30.27,30.16,10,10,10,15,9,18,0.00,4,,252
2013-3-15,47,38,29,41,34,28,100,85,70,30.14,29.96,29.78,10,5,2,13,8,,0.19,7,Rain,229
2013-3-16,41,37,32,40,34,26,100,89,78,30.09,29.81,29.63,10,4,0,17,9,22,0.00,8,Fog-Rain,30
2013-3-17,35,32,28,26,23,19,78,70,61,30.23,30.17,30.09,10,10,10,23,14,29,0.00,8,,61
2013-3-18,36,32,28,36,30,22,100,88,75,30.08,29.75,29.57,10,4,0,29,15,36,0.08,8,Fog-Rain-Snow,84
2013-3-19,35,29,22,27,18,14,78,65,52,30.05,29.91,29.75,10,10,10,36,25,45,T,5,Snow,259
2013-3-20,29,24,19,18,14,9,68,57,46,30.05,30.01,29.98,10,9,2,23,14,35,0.01,5,Snow,285
2013-3-21,34,23,11,20,16,10,92,71,49,30.04,30.00,29.97,10,8,0,21,9,26,0.01,6,Fog-Snow,296
2013-3-22,41,30,19,22,19,16,84,63,41,30.08,30.05,30.01,10,10,10,16,7,28,0.00,2,,276
2013-3-23,46,36,25,25,22,17,88,67,45,30.12,30.07,30.00,10,10,10,14,6,17,0.00,3,,11
2013-3-24,37,32,27,28,25,22,92,77,61,30.00,29.75,29.55,10,7,1,36,19,44,0.21,7,Snow,58
2013-3-25,36,32,28,30,27,27,92,81,70,29.97,29.64,29.51,10,3,0,23,14,26,0.29,8,Fog-Snow,353
2013-3-26,40,36,32,29,28,25,85,70,54,30.22,30.11,29.98,10,10,10,18,10,22,T,7,Snow,294
2013-3-27,41,35,29,31,28,26,92,74,55,30.31,30.27,30.20,10,10,7,20,9,24,0.00,6,,280
2013-3-28,49,38,26,32,27,22,85,65,45,30.35,30.32,30.29,10,10,10,16,8,20,0.00,2,,261
2013-3-29,52,40,27,31,27,20,92,64,35,30.34,30.29,30.24,10,10,7,16,4,20,0.00,3,,294
2013-3-30,55,41,27,36,29,22,92,67,42,30.26,30.14,29.94,10,10,9,15,5,20,0.00,4,,190
2013-3-31,60,49,38,45,39,31,92,67,42,29.91,29.78,29.70,10,8,2,26,12,32,T,7,,249